Showing default

COSMOS 2479, 38101

Orbit data source: Space-Track

COSMOS 2479, 38101 is a payload satellite owned by PVO (CIS) in GEO that was launched on Fri, 30 Mar 2012 UTC via a PROTON-K/DM-2 launch vehicle from the Tyuratam Missile And Space Complex (TTMTR). Payloads include a variety of satellites, spacecraft, and rockets equipped with specific instruments for various scientific and technological missions. These include communications satellites like Starlink; space stations such as the ISS; scientific satellites like the Hubble; Earth observation satellites from companies like Planet Labs, Umbra, and HawkEye 360; GPS; miniature CubeSats for education and research; and military/defense satellites.

Loading next visibility...
COSMOS 2479 details
Identifier
38101, 2012-012A
Orbit
GEO
Last TLE update2 days ago
Origin
Flag of CISPVO (CIS)
ManufacturerNPOL/KOMET
MissionNon-operational Defense Early Warn
Bus & MotorPROGNOZ, Unknown motor
Mass2,580 kg wet, ~2,200 kg dry
Launch date (UTC)
2012-03-30 (13 years ago)
Launch vehicle
PROTON-K/DM-2
Launch site
Tyuratam Missile And Space Complex (TTMTR)
Object type
Payload
Rocket body
Debris
Shape & HBRStep Cyl + 2 Pan, 10 m
Radar Cross Section12.911 m², Large (>1 m²)

Expand to show TLE details & history

TLE from 2 days ago
0 COSMOS 2479
1 38101U 12012A   24347.22410413 -.00000173  00000-0  00000-0 0  9998
2 38101   7.5716  61.5922 0006096 223.9495 143.3854  1.00392307 46554
Epoch: 2024-12-12T05:22Z
Definitive object data (Epoch: 2024-12-12T05:22:42.596Z)
Latitude0.991°
Longitude-93.18872°
Altitude35,772.965 km
Speed3.074 km/s
True Right ascension04h 35m 35s
True Declination0° 59' 24"
Sunlit
Object was in daylight at TLE epoch
Visualization TLE readout
Latitude-7.17633°
Longitude150.16494°
Altitude35,730.734 km
Speed3.078 km/s
Apparent Right ascension20h 55m 35s
Apparent Declination-14° 08' 31"
Sunlit
Object is in daylight
Visualization observer readout
Local Sidereal Time19:58:45
Azimuth163.243° S
Elevation34.347°
Doppler factor1
Orbital elements
Apogee altitude35,779.57 km
Perigee altitude35,728.202 km
Semi-major axis42,132.023 km
Eccentricity0.0006096
Inclination7.5716°
RAAN61.5922°
Arg. of periapsis223.9495°
True anomaly143.42704°
Mean anomaly143.3854°
Eccentric anomaly143.40622°
Mean motion0.25097 °/min
BSTARUnknown
Orbital period1434.42 mins
Loading historical data...
38101 neighbors
Authenticating...
Loading maneuver chart data...
Loading historical data...
Loading historical data...
Loading historical data...
Loading historical data...
Loading historical data...
Loading historical data...
Loading historical data...

COSMOS 2479 Visibility forecast

Observer location: undefined°, undefined

Span
Click to sort rows by Start time (UTC) header in descending order
Start Az.
Max El. time (UTC)
Max El. Az.
Max El.
End time (UTC)
End Az.
1440 mins2024-12-13 21:27:00.879Z163.248° S2024-12-14 10:38:00.879Z156.939° SSE37.505°2024-12-14 21:27:00.879Z162.691° S
|